[[{"header":{"parameterUnit":"m.s-1","parameterCategory":1,"la1":30.2991,"la2":30.254,"lo1":-89.0895,"lo2":-89.0444,"dy":0.0017,"dx":0.0017,"nx":28,"ny":28,"refTime":"2025-06-13T09:00:00:Z","depth":0,"parameterNumber":2,"parameterNumberName":"U-component_of_WINDS"},"data":[0,0,0,0,0,0,0,0,0,0,0,0,0,0,0,0,0,0,0,0,0,0,0,0,0,0,0,0,0,0,0,0,0,0,0,0,0,0,0,0,0,0,0,0,0,0,0,0,0,0,0,0,0,0,0,0,0,0,-0.7092,-0.7091,0,-0.7035,-0.7034,-0.7034,-0.7,-0.7,-0.7,-0.7,-0.6942,-0.6941,-0.694,0,0,0,0,0,0,0,0,0,0,0,0,0,-0.7171,-0.717,-0.7092,-0.7091,-0.709,-0.7035,-0.7034,-0.7034,-0.7,-0.7,-0.7,-0.7,-0.6943,-0.6941,-0.6939,0,0,0,0,0,0,0,0,0,0,0,0,0,-0.7128,-0.7169,-0.7092,-0.7067,-0.7064,-0.7035,-0.7034,-0.7033,-0.7,-0.7,-0.7,-0.7,-0.6943,-0.6941,-0.6939,-0.6931,0,0,-0.6933,-0.6932,0,0,0,0,0,0,0,0,-0.713,-0.7125,-0.7071,-0.7069,-0.7065,-0.7024,-0.7041,-0.6999,-0.7,-0.7025,-0.7,-0.7,-0.697,-0.6966,-0.6955,-0.6928,-0.6926,-0.6933,-0.6931,-0.6931,-0.693,0,0,0,0,0,0,0,-0.7133,-0.7127,-0.7069,-0.7071,-0.7067,-0.7059,-0.7052,-0.7033,-0.6999,-0.7022,-0.702,-0.7014,-0.6968,-0.6958,-0.6954,-0.6925,-0.6933,-0.6931,-0.693,-0.6929,-0.6888,-0.6888,0,0,0,0,0,0,-0.714,-0.713,-0.7071,-0.7068,-0.7098,-0.7058,-0.705,-0.7038,-0.6999,-0.6993,-0.7014,-0.7012,-0.6961,-0.6956,-0.6952,-0.6939,-0.6931,-0.6929,-0.6927,-0.6887,-0.6888,-0.6888,0,0,0,0,0,0,-0.7142,-0.7135,-0.7073,-0.7098,-0.709,-0.7056,-0.7043,-0.7037,-0.7026,-0.6993,-0.6987,-0.7009,-0.6961,-0.6955,-0.6936,-0.6936,-0.6928,-0.6926,-0.6887,-0.6887,-0.6888,-0.6914,0,0,0,0,0,0,-0.7145,-0.7136,-0.7133,-0.7098,-0.7088,-0.7059,-0.7043,-0.7036,-0.7023,-0.702,-0.6987,-0.6981,-0.696,-0.694,-0.6934,-0.6933,-0.6924,-0.6887,-0.6887,-0.6888,-0.6913,-0.6915,-0.6917,0,0,0,0,0,-0.7147,-0.7142,-0.7133,-0.7126,-0.7083,-0.7059,-0.7053,-0.7029,-0.7023,-0.7019,-0.6997,-0.6982,-0.6938,-0.6938,-0.6932,-0.693,-0.6887,-0.6887,-0.6888,-0.6912,-0.6914,-0.6917,0,0,0,0,0,0,-0.7178,-0.7137,-0.7126,-0.711,-0.7088,-0.7053,-0.7047,-0.7033,-0.7012,-0.7011,-0.6982,-0.6975,-0.6959,-0.6943,-0.6944,-0.692,-0.6911,-0.691,-0.6931,-0.6933,-0.6935,-0.6939,-0.6922,0,0,0,0,0,-0.7183,-0.7166,-0.7132,-0.7121,-0.711,-0.7081,-0.7069,-0.7053,-0.7029,-0.702,-0.6997,-0.6975,-0.6956,-0.6944,-0.6924,-0.691,-0.6902,-0.6906,-0.6908,-0.691,-0.691,-0.6901,-0.6902,-0.6889,-0.6889,-0.6889,0,0,-0.7192,-0.7168,-0.716,-0.7126,-0.7107,-0.7091,-0.7073,-0.7057,-0.7044,-0.7017,-0.6998,-0.6981,-0.6954,-0.6938,-0.693,-0.6924,-0.6912,-0.6911,-0.6912,-0.6911,-0.6901,-0.6902,-0.6903,-0.6889,-0.6889,-0.6889,0,0,-0.7201,-0.7182,-0.717,-0.7151,-0.7123,-0.7104,-0.7101,-0.7068,-0.7056,-0.7036,-0.7015,-0.7,-0.6968,-0.695,-0.6936,-0.6939,-0.6924,-0.6933,-0.6943,-0.6935,-0.6936,-0.6937,-0.6937,-0.6937,-0.6933,-0.6933,-0.6933,0,-0.7217,-0.7191,-0.7166,-0.715,-0.7136,-0.7111,-0.7099,-0.7082,-0.7049,-0.704,-0.7034,-0.6993,-0.6973,-0.6952,-0.6953,-0.6943,-0.6939,-0.6936,-0.6938,-0.6938,-0.6939,-0.6939,-0.6939,-0.6934,-0.6934,-0.6934,-0.6934,0,-0.7212,-0.7194,-0.7188,-0.7156,-0.7142,-0.7128,-0.71,-0.7089,-0.7073,-0.7055,-0.7035,-0.7011,-0.6986,-0.698,-0.6965,-0.6956,-0.6953,-0.6943,-0.6933,-0.6942,-0.6941,-0.6941,-0.6936,-0.6936,-0.6935,-0.6935,0,0,-0.7238,-0.7192,-0.719,-0.7175,-0.7142,-0.7128,-0.7114,-0.7089,-0.7079,-0.7057,-0.7044,-0.7018,-0.7008,-0.6992,-0.6975,-0.6968,-0.6971,-0.6959,-0.6957,-0.6961,-0.696,-0.6967,-0.6967,-0.6961,-0.6961,-0.6961,-0.6962,0,-0.7241,-0.7213,-0.719,-0.717,-0.7154,-0.713,-0.7117,-0.7095,-0.7077,-0.7061,-0.7041,-0.7022,-0.7011,-0.7002,-0.6994,-0.6972,-0.697,-0.6972,-0.6948,-0.6948,-0.6955,-0.6967,-0.6975,-0.6977,-0.6961,-0.6961,-0.6961,0,-0.7242,-0.7221,-0.7199,-0.7168,-0.716,-0.7148,-0.7124,-0.7108,-0.7083,-0.7071,-0.7054,-0.7036,-0.7019,-0.7012,-0.6988,-0.699,-0.6979,-0.6967,-0.6967,-0.6963,-0.6954,-0.6963,-0.6977,-0.6977,-0.6961,-0.6961,-0.6961,0,-0.7262,-0.7229,-0.7211,-0.7199,-0.7162,-0.7155,-0.7139,-0.7114,-0.71,-0.7079,-0.707,-0.7047,-0.7035,-0.7018,-0.6994,-0.6991,-0.6973,-0.6963,-0.6962,-0.6963,-0.6959,-0.6959,-0.697,-0.6953,-0.6953,-0.6953,-0.6953,0,-0.7269,-0.7256,-0.722,-0.7209,-0.7195,-0.7168,-0.7155,-0.7137,-0.7115,-0.71,-0.7078,-0.7065,-0.7036,-0.7019,-0.7001,-0.6984,-0.6978,-0.6968,-0.6963,-0.6969,-0.6971,-0.6961,-0.696,-0.6953,-0.6953,-0.6953,-0.6953,0,-0.7289,-0.7264,-0.7243,-0.721,-0.7201,-0.7192,-0.7163,-0.7152,-0.7133,-0.7115,-0.7109,-0.7079,-0.7058,-0.7033,-0.7005,-0.6993,-0.6977,-0.697,-0.6985,-0.6982,-0.6982,-0.6983,-0.6987,-0.6986,-0.6971,-0.6971,-0.6971,0,-0.7294,-0.7284,-0.7249,-0.7238,-0.7222,-0.7204,-0.719,-0.7164,-0.7151,-0.7121,-0.7114,-0.7091,-0.7072,-0.704,-0.7016,-0.6994,-0.6986,-0.6989,-0.6982,-0.6989,-0.6985,-0.6986,-0.6984,-0.699,-0.6991,-0.6991,-0.6991,0,-0.7306,-0.7294,-0.7275,-0.7251,-0.7235,-0.7215,-0.7194,-0.7186,-0.7156,-0.7142,-0.712,-0.7105,-0.7075,-0.7053,-0.7028,-0.7012,-0.6996,-0.6994,-0.6992,-0.6998,-0.7007,-0.7001,-0.6989,-0.6993,-0.6993,-0.6993,-0.6993,-0.6993,-0.7319,-0.7308,-0.7282,-0.7261,-0.7243,-0.7224,-0.7211,-0.7191,-0.7172,-0.7145,-0.7131,-0.711,-0.7085,-0.705,-0.7034,-0.7017,-0.7012,-0.7009,-0.7009,-0.7008,-0.701,-0.701,-0.7013,-0.7012,-0.7012,-0.7012,-0.7012,0,-0.7329,-0.7311,-0.7292,-0.7263,-0.7247,-0.7233,-0.7209,-0.7197,-0.7178,-0.7156,-0.7137,-0.7112,-0.7091,-0.7065,-0.7042,-0.7033,-0.7025,-0.7028,-0.7028,-0.7024,-0.7017,-0.702,-0.7034,-0.7034,-0.7034,-0.7034,-0.7034,-0.7034,-0.7332,-0.7314,-0.7299,-0.7271,-0.7253,-0.7231,-0.7219,-0.7201,-0.7184,-0.7157,-0.7138,-0.7122,-0.7098,-0.7073,-0.7053,-0.7046,-0.7038,-0.7042,-0.7033,-0.7027,-0.7025,-0.7023,-0.7026,-0.7041,-0.7041,-0.7042,-0.7042,-0.7042]},{"header":{"parameterUnit":"m.s-1","parameterCategory":1,"la1":30.2991,"la2":30.254,"lo1":-89.0895,"lo2":-89.0444,"dy":0.0017,"dx":0.0017,"nx":28,"ny":28,"refTime":"2025-06-13T09:00:00:Z","depth":0,"parameterNumber":3,"parameterNumberName":"V-component_of_WINDS"},"data":[0,0,0,0,0,0,0,0,0,0,0,0,0,0,0,0,0,0,0,0,0,0,0,0,0,0,0,0,0,0,0,0,0,0,0,0,0,0,0,0,0,0,0,0,0,0,0,0,0,0,0,0,0,0,0,0,0,0,2.9693,2.9694,0,2.9708,2.9708,2.9708,2.9734,2.9735,2.9735,2.9736,2.9749,2.9749,2.9749,0,0,0,0,0,0,0,0,0,0,0,0,0,2.9687,2.9687,2.9693,2.9694,2.9694,2.9708,2.9708,2.9708,2.9734,2.9735,2.9736,2.9736,2.9749,2.9749,2.9749,0,0,0,0,0,0,0,0,0,0,0,0,0,2.9694,2.9687,2.9693,2.9709,2.971,2.9708,2.9708,2.9708,2.9734,2.9735,2.9736,2.9736,2.9749,2.9749,2.9749,2.9733,0,0,2.9748,2.9748,0,0,0,0,0,0,0,0,2.9694,2.9695,2.9706,2.9707,2.9709,2.972,2.9711,2.9717,2.9734,2.9725,2.9736,2.9737,2.9739,2.974,2.9741,2.9733,2.9734,2.9748,2.9748,2.9748,2.9748,0,0,0,0,0,0,0,2.9693,2.9694,2.9699,2.9706,2.9708,2.9714,2.9716,2.9712,2.9727,2.9726,2.9728,2.9729,2.974,2.9741,2.9741,2.9734,2.9748,2.9748,2.9748,2.9748,2.9715,2.9714,0,0,0,0,0,0,2.9691,2.9693,2.9699,2.97,2.9703,2.9714,2.9716,2.9716,2.9728,2.973,2.9729,2.973,2.9741,2.9741,2.9742,2.9724,2.9748,2.9748,2.9748,2.9716,2.9715,2.9714,0,0,0,0,0,0,2.9691,2.9691,2.9698,2.9697,2.9698,2.9713,2.9713,2.9716,2.9717,2.973,2.9732,2.9727,2.9741,2.9742,2.9735,2.9725,2.9748,2.9748,2.9717,2.9716,2.9715,2.9688,0,0,0,0,0,0,2.969,2.9691,2.9685,2.9697,2.9698,2.9692,2.9712,2.9715,2.9717,2.9719,2.9729,2.9731,2.9742,2.9735,2.9735,2.9725,2.9748,2.9718,2.9716,2.9715,2.969,2.9687,2.9683,0,0,0,0,0,2.969,2.9677,2.9685,2.9685,2.9692,2.9691,2.9692,2.9705,2.9716,2.971,2.9718,2.9731,2.9726,2.9734,2.9734,2.9724,2.9718,2.9717,2.9715,2.9692,2.9687,2.9683,0,0,0,0,0,0,2.9663,2.9678,2.9688,2.9678,2.9683,2.9695,2.9689,2.97,2.9702,2.9704,2.972,2.9722,2.9713,2.9718,2.9727,2.9709,2.9724,2.9722,2.9707,2.9702,2.9699,2.9698,2.9747,0,0,0,0,0,2.9656,2.9654,2.9668,2.9658,2.966,2.9674,2.9674,2.9684,2.969,2.9692,2.97,2.9704,2.9704,2.9703,2.9704,2.9691,2.9694,2.9684,2.9681,2.9678,2.9676,2.967,2.9666,2.9708,2.9708,2.9708,0,0,2.9641,2.9649,2.9647,2.9653,2.9658,2.9656,2.9675,2.9672,2.9671,2.9691,2.9686,2.9691,2.9698,2.9688,2.9684,2.9692,2.9665,2.9675,2.9673,2.9673,2.9668,2.9664,2.966,2.9707,2.9707,2.9708,0,0,2.9613,2.9619,2.9612,2.9617,2.9625,2.9634,2.9632,2.9643,2.9648,2.9643,2.9658,2.9656,2.9655,2.9659,2.9661,2.9635,2.9647,2.9635,2.9617,2.9611,2.9608,2.9605,2.9596,2.9593,2.9633,2.9633,2.9633,0,2.9594,2.9592,2.9607,2.9603,2.9605,2.9624,2.9616,2.962,2.9627,2.9628,2.9637,2.9636,2.9642,2.9634,2.9627,2.9628,2.9627,2.9634,2.9607,2.9604,2.9602,2.9594,2.959,2.9632,2.9632,2.9632,2.9632,0,2.9568,2.9566,2.9559,2.9566,2.9567,2.9562,2.9576,2.9575,2.9584,2.9593,2.9587,2.9595,2.9597,2.9596,2.9605,2.9589,2.9594,2.9604,2.962,2.9596,2.9589,2.9586,2.963,2.963,2.963,2.9631,0,0,2.9523,2.9539,2.9537,2.954,2.955,2.9549,2.9544,2.9547,2.9547,2.9551,2.9547,2.9546,2.9556,2.9559,2.9568,2.9563,2.9543,2.9575,2.9575,2.9569,2.9526,2.9518,2.9514,2.955,2.955,2.9549,2.9526,0,2.9498,2.9491,2.9505,2.9494,2.9493,2.9511,2.9507,2.9513,2.952,2.952,2.9528,2.9527,2.9541,2.9542,2.9538,2.9546,2.9534,2.9548,2.9547,2.9547,2.9545,2.951,2.9502,2.9479,2.9523,2.9522,2.9522,0,2.9468,2.9471,2.9461,2.9473,2.9472,2.9468,2.9473,2.9472,2.9479,2.9485,2.9487,2.9499,2.9495,2.9509,2.9504,2.9513,2.9513,2.9517,2.9517,2.9517,2.9533,2.9511,2.9472,2.9469,2.9517,2.9518,2.9518,0,2.9437,2.9439,2.9434,2.9436,2.9449,2.9446,2.9451,2.9458,2.946,2.9463,2.9464,2.9466,2.9468,2.9469,2.9481,2.9491,2.9474,2.949,2.9479,2.9479,2.9475,2.9475,2.9437,2.9475,2.9475,2.9475,2.9475,0,2.9408,2.9401,2.942,2.9417,2.941,2.9425,2.9417,2.9424,2.9431,2.9429,2.9444,2.9442,2.9458,2.9457,2.9467,2.9461,2.9461,2.9466,2.9468,2.9465,2.9464,2.9466,2.9468,2.9474,2.9474,2.9474,2.9474,0,2.9372,2.9385,2.938,2.9393,2.9396,2.939,2.9401,2.9398,2.9407,2.9404,2.9404,2.9418,2.9418,2.943,2.9433,2.9439,2.9429,2.9435,2.9427,2.9429,2.9418,2.9419,2.938,2.9376,2.9415,2.9415,2.9414,0,2.9353,2.9348,2.9361,2.9361,2.9366,2.9365,2.9367,2.9382,2.9382,2.939,2.9386,2.9388,2.939,2.9389,2.9399,2.9401,2.9407,2.9393,2.9407,2.9404,2.9407,2.9408,2.9407,2.939,2.9389,2.9389,2.9388,0,2.9318,2.9324,2.9326,2.933,2.9332,2.9335,2.934,2.9339,2.9355,2.9355,2.9356,2.9357,2.936,2.9362,2.9366,2.9371,2.9382,2.9384,2.9382,2.9378,2.9374,2.9377,2.942,2.9385,2.9385,2.9385,2.9386,2.9386,2.929,2.9287,2.9296,2.9297,2.9302,2.9306,2.9305,2.9313,2.9314,2.9318,2.9327,2.9326,2.9333,2.934,2.9344,2.9343,2.935,2.9347,2.9346,2.9345,2.9344,2.9374,2.9344,2.9344,2.9344,2.9344,2.9344,0,2.9256,2.9263,2.9264,2.927,2.9272,2.9283,2.9289,2.9289,2.9288,2.9294,2.9296,2.9297,2.9298,2.9308,2.9311,2.9309,2.9314,2.9309,2.931,2.9311,2.9337,2.9339,2.9305,2.9305,2.9305,2.9305,2.9305,2.9305,2.9239,2.9235,2.9242,2.924,2.9247,2.9247,2.9249,2.9253,2.9258,2.9258,2.926,2.9267,2.9274,2.9277,2.9279,2.9282,2.9283,2.9276,2.928,2.9305,2.9309,2.9312,2.9314,2.9276,2.9276,2.9254,2.9254,2.9254]}]]